www.pogodaiklimat.ru

Погода и климат >> Архив погоды >> Россия >> Оренбургская область >> Новосергиевка


ПОГОДА в Новосергиевке

  • Прогноз погоды в Новосергиевке
  • Монитор погоды в Новосергиевке

АРХИВ ПОГОДЫ в Новосергиевке

Время (UTC), дата Ветер
(напр.,м/с)
 
Видим.   Явления Облачность Т
(С)
Тd
(С)
f
(%)
Тe
(С)
Тes
(С)
Комфортность P
(гПа)
Po
(гПа)
Тmin
(С)
Tmax
(С)
R
(мм)
R24
(мм)
S
(см)
12 15.01 Ю 3 20 км [диам. изморози мм] 10/10 300 м
[St]
-7.8 -9.0 91 -14 -14 1017.8 999.5
15 15.01 Ю 3 10 км {снег} 10/0 2000 м
[As trans]
-8.4 -9.6 91 -14 -14 1018.4 1000.0 -7.4 0.0
18 15.01 Ю 5
{11}
10 км {снег} 10/0 420 м
[As op]
-7.7 -8.9 91 -15 -15 1017.8 999.5
21 15.01 ЮВ 4 10 км слаб. снег 10/0 2000 м
[As op]
-6.9 -8.0 92 -14 -14 1018.1 999.8
00 16.01 Ю 5 4000 м слаб. снег 10/0 2000 м
[As op]
-6.4 -7.4 93 -14 -14 1018.6 1000.3
03 16.01 Ю 3
{11}
10 км {снег} 10/8 600 м
[Sc Ac und]
-8.4 -9.5 92 -14 -14 1018.0 999.6 -8.4 0.0 35
06 16.01 ЮВ 4 20 км {снег} 10/3 600 м
[Sc Ac trans]
-10.1 -11.6 89 -17 -17 1017.4 998.9 -10.5
09 16.01 ЮВ 5-13
{13}
20 км 10/0 2000 м
[Ac trans Cc]
-7.1 -10.2 78 -14 -14 1015.2 997.0
12 16.01 ЮВ 4
{13}
20 км 10/0 2000 м
[Ac lent Ci]
-5.9 -8.4 82 -12 -12 1014.3 996.1
15 16.01 ЮВ 7-12
{12}
10 км 9/0
[Ac trans]
-5.7 -8.0 84 -14 -14 1012.2 994.1 -5.2
18 16.01 ЮВ 3-12
{14}
10 км 8/0 2000 м
[Ac trans]
-7.1 -9.2 85 -13 -13 1012.1 994.0
21 16.01 ЮВ 7-12
{12}
10 км 10/0 2000 м
[Ac und]
-6.4 -8.5 85 -15 -15 1010.7 992.6
00 17.01 ЮВ 5-12
{14}
10 км 10/0 2000 м
[Ac und]
-7.2 -8.7 89 -15 -15 1010.0 991.8
03 17.01 ЮВ 4 10 км слаб. снег 10/10 420 м
[Frnb Ns]
-7.8 -8.9 92 -15 -15 1009.7 991.5 -8.1 0.2 35
06 17.01 ЮВ 2 10 км слаб. снег 10/10 330 м
[Frnb Ns]
-5.5 -6.7 91 -10 -10 1009.2 991.2
09 17.01 Ю 1 10 км слаб. снег 10/10 360 м
[Frnb Ns]
-3.8 -5.1 91 -6 -6 1010.0 992.1
12 17.01 СЗ 2 20 км {снег} 10/10 540 м
[Sc]
-3.7 -5.1 90 -8 -8 1011.9 994.0
15 17.01 С 3 10 км 10/10 500 м
[Sc]
-4.3 -6.0 88 -10 -10 1014.7 996.7 -3.5 1
18 17.01 С 3 10 км 10/0 480 м
[As op]
-5.3 -7.1 87 -11 -11 1016.7 998.6
21 17.01 СВ 1 10 км 10/0 400 м
[As op]
-6.6 -8.2 88 -9 -9 1017.7 999.5
00 18.01 З 2 10 км 10/0 360 м
[As op]
-7.6 -8.9 90 -12 -12 1019.1 1000.8
03 18.01 З 1 10 км 10/0 400 м
[As op]
-9.0 -10.1 92 -11 -11 1019.3 1000.9 -9.0 36
06 18.01 ЮЗ 2 10 км {снег} 10/0 2000 м
[As op]
-10.5 -11.7 91 -15 -15 1020.7 1002.1 -10.5
09 18.01 Ю 3 20 км {снег} 8/3 600 м
[Sc Ci]
-10.4 -12.2 87 -16 -15 1020.1 1001.6
12 18.01 Ю 2 20 км {снег} 8/3 600 м
[Sc Ci fib]
-11.0 -12.8 87 -16 -15 1019.4 1000.8
15 18.01 В 1 10 км 3/0
[Ci fib]
-12.7 -14.1 89 -15 -15 1019.5 1000.8 -9.0 0.0
18 18.01 Ю 1 10 км слаб. снег 10/0 2000 м
[As op]
-13.1 -14.5 89 -15 -15 1019.6 1000.9
21 18.01 Ю 1 10 км слаб. снег 10/0 2000 м
[As op]
-13.4 -14.7 90 -16 -16 1019.7 1000.9
00 19.01 Ю 1 10 км слаб. снег 10/0 2000 м
[As op]
-13.5 -14.7 91 -16 -16 1018.9 1000.1
03 19.01 ЮВ 1 10 км дымка {снег} 10/10 270 м
[St]
-12.5 -13.7 91 -15 -15 1018.1 999.5 -13.8 0.3 36
06 19.01 Ю 2 10 км слаб. снег 10/10 300 м
[Frnb Ns]
-11.5 -12.7 91 -16 -16 1017.6 999.0
09 19.01 Ю 2 10 км слаб. снег 10/0 2000 м
[As op]
-9.6 -10.7 92 -14 -14 1016.9 998.4
12 19.01 Ю 2 20 км {снег} 10/0 2000 м
[Ac As]
-8.5 -9.5 92 -13 -13 1016.1 997.8
15 19.01 Ю 2 10 км 10/0 2000 м
[Ac As]
-8.3 -9.7 90 -13 -13 1015.9 997.5 -8.2 0.2
18 19.01 Ю 2 4000 м дымка 10/10 270 м
[St]
-7.6 -8.8 91 -12 -12 1014.6 996.3
21 19.01 ЮВ 1 2000 м дымка 10/10 240 м
[St]
-6.7 -7.8 92 -9 -9 1013.9 995.7
00 20.01 Ю 2 500 м переохл. туман [диам. изморози мм] ?/? -5.8 -6.8 93 -10 -10 1012.6 994.5
03 20.01 Ю 2 10 км слаб. снег {туман} [диам. изморози мм] 10/0 2000 м
[As op]
-5.1 -6.1 93 -9 -9 1011.4 993.4 -8.4 0.3 36
06 20.01 штиль 0 10 км слаб. снег {туман} [диам. изморози мм] 10/0 2000 м
[As op]
-4.0 -4.7 95 -5 -5 1011.5 993.6
09 20.01 СЗ 4
{10}
20 км {снег} [диам. изморози мм] 10/0 2000 м
[As trans]
-3.1 -4.2 92 -9 -9 1013.0 995.1
12 20.01 С 5
{10}
20 км {снег} 9/6 600 м
[Sc Ac trans]
-4.8 -6.4 89 -12 -12 1016.0 997.9
15 20.01 СЗ 2
{10}
10 км ясно -11.1 -12.4 90 -16 -16 1019.3 1000.7 -1.9 0.3
18 20.01 штиль 0 10 км [диам. изморози мм] ясно -14.8 -15.9 91 -15 -15 1021.8 1002.9
21 20.01 С 2 10 км слаб. снег [диам. изморози мм] 10/0 2000 м
[As op]
-11.2 -12.3 92 -16 -16 1023.4 1004.8
00 21.01 штиль 0 10 км слаб. снег [диам. изморози мм] 10/0 2000 м
[As op]
-10.9 -12.0 92 -11 -11 1024.4 1005.7
03 21.01 Ю 1 4000 м слаб. снег [диам. изморози мм] 10/10 270 м
[Frnb Ns]
-12.8 -14.0 91 -15 -15 1025.5 1006.6 -17.0 0.2 36
06 21.01 Ю 2 10 км слаб. снег [диам. изморози мм] 10/10 420 м
[Frnb Ns]
-13.1 -14.3 91 -18 -18 1025.8 1006.9
09 21.01 Ю 2 20 км {снег} 10/0 480 м
[As op]
-12.7 -14.0 90 -17 -17 1025.6 1006.8
12 21.01 Ю 4 10 км слаб. снег 10/0 2000 м
[As op]
-12.7 -14.1 89 -20 -20 1024.8 1006.0
15 21.01 Ю 5 10 км {снег} 10/10 600 м
[Sc]
-13.3 -14.7 89 -22 -22 1023.2 1004.3 -12.1 0.2
18 21.01 Ю 4 10 км {снег} 10/0 2000 м
[As trans]
-12.4 -13.8 89 -20 -20 1020.5 1001.8
21 21.01 Ю 6
{12}
10 км слаб. снег 10/10 330 м
[Frnb Ns]
-10.8 -12.2 89 -19 -19 1017.5 998.9
00 22.01 Ю 5
{12}
4000 м слаб. снег {метель} 10/10 300 м
[Frnb Ns]
-9.5 -10.8 90 -17 -17 1013.9 995.5
03 22.01 Ю 3
{11}
2000 м снег {метель} 10/10 300 м
[Frnb Ns]
-7.8 -8.9 92 -14 -14 1012.2 994.0 -13.6 5 37
06 22.01 ЮЗ 4 2000 м снег {туман} 10/0 2000 м
[As op]
-5.5 -6.7 91 -12 -12 1011.2 993.2

 

Местоположение метеостанции Новосергиевка (Оренбургская область, Россия): широта 52.08 долгота 53.63 высота над уровнем моря 139 м.

В архиве по умолчанию представлена погода в Новосергиевке за последнюю неделю. Архивные данные за месяц целиком и за предыдущие месяцы, начиная с января 2011 года, Вы можете получить, выбрав интересующий диапазон дат из раскрывающегося списка и нажав кнопку "Ввод!".


*Определитесь, кто Вы:
робот инопланетянин человек

Внимание! Время в таблицах - всемирное. Для получения местного времени необходимо прибавить поправку, которая равна 5 ч.

Смотрите также архив погоды в соседних городах и на ближайших метеорологических станциях:

Погода в Сорочинске (Оренбургская область, Россия) (52 км)
Погода в Илеке (Оренбургская область, Россия) (65 км)
Погода в Татарской Каргале (Оренбургская область, Россия) (107 км)
Погода в Аксае (Западно-Казахстанская область, Казахстан) (109 км)
Погода в Оренбурге (Оренбургская область, Россия) (110 км)
Погода в Чингирлау (Западно-Казахстанская область, Казахстан) (116 км)
Погода в Шарлыке (Оренбургская область, Россия) (121 км)
Погода в Бузулуке (Оренбургская область, Россия) (126 км)
Погода в Первомайском (Оренбургская область, Россия) (137 км)
Погода в Соль-Илецк (Оренбургская область, Россия) (141 км)

Пояснения к столбцам:

Ветер - указаны скорость ветра в м/с - средняя за 10 мин, порывы в срок и между сроками (в фигурных скобках) и направление, откуда дует ветер: С - северный, СВ - северо-восточный, В - восточный, ЮВ - юго-восточный, Ю - южный, ЮЗ - юго-западный, З - западный, СЗ - северо-западный.
Видимость - горизонтальная дальность видимости в метрах или километрах. При видимости от 1 до 10 км при отсутствии осадков обычно наблюдается дымка, при ухудшении видимости до 1 км и менее - туман. В сухую погоду видимость может ухудшаться дымом, пылью или мглою.
Явления - указаны атмосферные явления, наблюдавшиеся в срок или в последний час перед сроком; фигурными скобками обозначены явления, наблюдавшиеся между сроками (за 1-3 часа до срока); квадратными скобками обозначены град или гололедные отложения с указанием их диаметра в мм.
Облачность - указаны через наклонную черту общая и нижняя облачность в баллах и высота нижней границы облаков в метрах; квадратными скобками обозначены формы облаков: Ci - перистые, Cs - перисто-слоистые, Cc - перисто-кучевые, Ac - высококучевые, As - высокослоистые, Sc - слоисто-кучевые, Ns - слоисто-дождевые, Cu - кучевые, Cb - кучево-дождевые. Подробнее классификацию облаков см. в Атласе облаков (PDF).
T - Температура воздуха - температура, измеренная на высоте 2 м над землей.
Td - Температура точки росы - температура, при понижении до которой содержащийся в воздухе водяной пар достигнет насыщения.
f - Относительная влажность воздуха - влажноcть воздуха, измеренная на высоте 2 м над землей.
Te - Эффективная температура - температура, которую ощущает одетый по сезону человек в тени. Характеристика душности погоды. При расчете учитывается влияние влажности воздуха и скорости ветра на теплоощущения человека.
Tes - Эффективная температура на солнце - температура, которую ощущает человек, с поправкой на солнечный нагрев. Характеристика знойности погоды. Зависит от высоты солнца над горизонтом, облачности и скорости ветра. Ночью, в пасмурную погоду, а также при ветре 12 м/с и более поправка равна нулю.
P - Атмосферное давление - приведенное к уровню моря атмосферное давление.
Po - Атмосферное давление - измеренное на уровне метеостанции атмосферное давление.
Tmin - Минимальная температура - минимум температуры воздуха на высоте 2 м над землей.
Tmax - Максимальная температура - максимум температуры воздуха на высоте 2 м над землей.
R - Количество осадков - Количество выпавших осадков за период времени, мм. При наведении курсора мыши на число - период времени, за который выпало указанное количество осадков.
R24 - Количество осадков - Количество выпавших осадков за 24 часа, мм.
S - Снежный покров - Высота снежного покрова, см. При наведении курсора мыши на число - состояние снежного покрова и степень покрытия местности в баллах.